Location: Brno
(49.2000°N, 16.6330°E)
Time: 00:00:02
(UTC+01:00)

RESURS DK-1 - Visible Passes

Search period start: 27 November 2014 00:00
Search period end: 07 December 2014 00:00
Orbit: 559 x 568 km, 69.9° (Epoch: 26 November)

Date Brightness Start Highest point End Pass type
(mag) Time Alt. Az. Time Alt. Az. Time Alt. Az.
27 Nov 2.7 17:09:55 10° S 17:13:54 47° ESE 17:17:08 15° NE visible
27 Nov 4.3 18:48:49 10° WSW 18:52:15 24° NW 18:53:09 23° NNW visible
28 Nov 2.4 17:09:29 10° SSW 17:13:35 65° ESE 17:17:14 13° NE visible
28 Nov 4.6 18:49:02 10° W 18:52:08 20° NW 18:53:15 18° NNW visible
29 Nov 2.3 17:09:08 10° SSW 17:13:17 87° ESE 17:17:17 11° NNE visible
29 Nov 4.8 18:49:22 10° W 18:52:02 16° NW 18:53:17 15° NNW visible
30 Nov 2.6 17:08:53 10° SW 17:13:01 71° WNW 17:17:12 10° NNE visible
30 Nov 5.0 18:49:50 10° WNW 18:51:57 14° NW 18:53:15 12° NNW visible
01 Dec 3.1 17:08:42 10° SW 17:12:46 53° NW 17:16:53 10° NNE visible
01 Dec 5.2 18:50:36 10° NW 18:51:54 11° NW 18:53:11 10° NNW visible
02 Dec 3.5 17:08:37 10° WSW 17:12:33 40° NW 17:16:31 10° NNE visible
03 Dec 3.9 17:08:36 10° WSW 17:12:21 32° NW 17:16:07 10° NNE visible
04 Dec 4.3 17:08:41 10° WSW 17:12:10 25° NW 17:15:41 10° N visible
05 Dec 4.5 17:08:51 10° W 17:12:01 21° NW 17:15:12 10° N visible
06 Dec 4.7 17:09:08 10° W 17:11:53 17° NW 17:14:39 10° N visible
